Weather History for La Porte, IN

Change the Weather History Date:

Thursday, October 24, 2013

  Actual Average (KVPZ) Record (KVPZ)
Temperature  
Mean Temperature 37 °F 50 °F  
Max Temperature 42 °F 60 °F 79 °F (2012)
Min Temperature 33 °F 40 °F 30 °F (1999)
Degree Days  
Heating Degree Days 28 15  
Month to date heating degree days 287  
Since 1 July heating degree days 417  
Cooling Degree Days 0 0  
Month to date cooling degree days 11  
Year to date cooling degree days 713  
Moisture  
Dew Point 27 °F    
Average Humidity 68    
Maximum Humidity 95    
Minimum Humidity 50    
Precipitation  
Precipitation 0.00 in 0.11 in 0.92 in (2001)
Month to date precipitation 2.56  
Year to date precipitation 31.31  
Sea Level Pressure  
Sea Level Pressure 30.12 in    
Wind  
Wind Speed 8 mph (West)    
Max Wind Speed 16 mph    
Max Gust Speed 25 mph    
Visibility 10 miles    
Events Rain , Snow    
T = Trace of Precipitation, MM = Missing Value Source: NWS Daily Summary

Daily Weather History Graph

Daily Weather History Graph

Search for Another Location

Airport:

Trip Planner

Search our weather history database for the weather conditions in past years. The results will help you decide how hot, cold, wet, or windy it might be!

Date:

Astronomy

Oct. 24, 2013 Rise Set
Actual Time 7:09 AM CDT 5:51 PM CDT
Civil Twilight 6:41 AM CDT 6:20 PM CDT
Nautical Twilight 6:08 AM CDT 6:52 PM CDT
Astronomical Twilight 5:36 AM CDT 7:24 PM CDT
Moon 10:14 PM CDT (10/24) 12:11 PM CDT (10/24)
Length of Visible Light 11h 39m
Length of Day
10h 42m
Waning Gibbous, 71% of the Moon is Illuminated
Oct 24
Waning Gibbous
Oct 26
Last Quarter
Nov 3
New
Nov 9
First Quarter
Nov 17
Full

Hourly Weather History & Observations

Time (CDT) Temp. Windchill Dew Point Humidity Pressure Visibility Wind Dir Wind Speed Gust Speed Precip Events Conditions
12:15 AM 36.9 °F 30.7 °F 28.0 °F 70% 29.99 in 10.0 mi West 8.1 mph - N/A   Overcast
12:35 AM 36.7 °F - 28.4 °F 72% 29.99 in 10.0 mi Calm Calm - N/A   Overcast
12:55 AM 36.5 °F 32.7 °F 28.0 °F 71% 30.00 in 10.0 mi West 4.6 mph - N/A   Overcast
1:15 AM 36.5 °F 31.0 °F 28.0 °F 71% 30.00 in 10.0 mi West 6.9 mph - N/A Snow Light Snow
1:35 AM 36.1 °F 29.9 °F 28.6 °F 74% 30.00 in 10.0 mi West 8.1 mph - N/A Snow Light Snow
1:55 AM 36.1 °F 29.3 °F 27.9 °F 72% 30.00 in 10.0 mi West 9.2 mph - N/A Rain Light Rain
2:15 AM 36.1 °F 32.3 °F 28.0 °F 72% 30.00 in 10.0 mi West 4.6 mph - N/A   Overcast
2:35 AM 36.0 °F 33.3 °F 28.4 °F 74% 30.00 in 10.0 mi West 3.5 mph - N/A   Overcast
2:55 AM 35.8 °F 30.9 °F 27.5 °F 72% 30.00 in 10.0 mi WSW 5.8 mph - N/A   Overcast
3:15 AM 35.8 °F 31.9 °F 27.5 °F 72% 30.00 in 10.0 mi WSW 4.6 mph - N/A   Overcast
3:35 AM 36.5 °F 29.7 °F 27.3 °F 69% 30.00 in 10.0 mi West 9.2 mph - N/A   Overcast
3:55 AM 36.1 °F 29.9 °F 27.0 °F 69% 30.00 in 10.0 mi West 8.1 mph - N/A   Overcast
4:15 AM 35.6 °F 29.2 °F 26.8 °F 70% 30.00 in 10.0 mi WSW 8.1 mph - N/A   Overcast
4:35 AM 34.9 °F 28.3 °F 27.3 °F 74% 30.01 in 10.0 mi WSW 8.1 mph - N/A   Overcast
4:55 AM 34.7 °F 29.6 °F 27.5 °F 75% 30.01 in 10.0 mi West 5.8 mph - N/A   Overcast
5:15 AM 35.8 °F 28.8 °F 27.9 °F 73% 30.01 in 10.0 mi West 9.2 mph - N/A   Overcast
5:35 AM 35.6 °F 27.5 °F 28.0 °F 74% 30.02 in 10.0 mi West 11.5 mph - N/A   Overcast
5:55 AM 35.2 °F 27.6 °F 28.0 °F 75% 30.02 in 10.0 mi West 10.4 mph 18.4 mph N/A   Overcast
6:15 AM 35.1 °F 27.9 °F 28.4 °F 77% 30.03 in 10.0 mi West 9.2 mph - N/A   Overcast
6:35 AM 35.1 °F 27.9 °F 28.9 °F 78% 30.03 in 10.0 mi West 9.2 mph - N/A   Overcast
6:55 AM 35.1 °F 28.6 °F 29.1 °F 79% 30.03 in 10.0 mi West 8.1 mph - N/A   Overcast
7:15 AM 35.6 °F 29.2 °F 29.3 °F 78% 30.04 in 10.0 mi West 8.1 mph - N/A   Overcast
7:35 AM 35.6 °F 29.2 °F 29.3 °F 78% 30.04 in 10.0 mi WSW 8.1 mph - N/A   Overcast
7:55 AM 36.0 °F 29.6 °F 29.3 °F 77% 30.05 in 10.0 mi WNW 8.1 mph - N/A   Overcast
8:15 AM 36.1 °F 29.9 °F 30.0 °F 78% 30.06 in 10.0 mi West 8.1 mph - N/A Snow Light Snow
8:35 AM 35.6 °F 29.2 °F 30.2 °F 81% 30.08 in 10.0 mi West 8.1 mph - N/A Rain Rain
8:55 AM 36.3 °F 30.1 °F 30.2 °F 78% 30.08 in 10.0 mi West 8.1 mph - N/A   Overcast
9:15 AM 36.5 °F 29.2 °F 30.0 °F 77% 30.09 in 10.0 mi WNW 10.4 mph 16.1 mph N/A Rain Light Rain
9:35 AM 36.3 °F 28.0 °F 31.3 °F 82% 30.10 in 5.0 mi NW 12.7 mph 18.4 mph N/A Rain Light Rain
9:55 AM 33.8 °F 27.7 °F 32.2 °F 94% 30.11 in 2.0 mi WNW 6.9 mph - N/A Snow Light Snow
10:15 AM 33.4 °F 25.9 °F 31.8 °F 94% 30.11 in 1.0 mi West 9.2 mph 17.3 mph N/A Snow Light Snow
10:35 AM 34.3 °F 27.0 °F 33.1 °F 95% 30.11 in 7.0 mi WSW 9.2 mph - N/A Snow Light Snow
10:55 AM 35.4 °F 28.4 °F 34.0 °F 94% 30.12 in 7.0 mi West 9.2 mph - N/A Rain Light Rain
11:15 AM 37.2 °F 30.0 °F 34.5 °F 90% 30.12 in 10.0 mi West 10.4 mph 16.1 mph N/A   Overcast
11:35 AM 39.0 °F 32.3 °F 32.0 °F 76% 30.12 in 10.0 mi WNW 10.4 mph 17.3 mph N/A   Overcast
11:55 AM 39.0 °F 34.0 °F 31.1 °F 73% 30.13 in 10.0 mi WNW 6.9 mph - N/A   Overcast
12:15 PM 41.4 °F 35.2 °F 29.7 °F 63% 30.13 in 10.0 mi NW 10.4 mph 20.7 mph N/A   Overcast
12:35 PM 40.6 °F 33.0 °F 26.2 °F 57% 30.13 in 10.0 mi NW 13.8 mph 20.7 mph N/A   Overcast
12:55 PM 40.6 °F 33.0 °F 25.3 °F 54% 30.13 in 10.0 mi WNW 13.8 mph 25.3 mph N/A   Overcast
1:15 PM 39.9 °F 31.8 °F 23.2 °F 51% 30.13 in 10.0 mi NW 15.0 mph 19.6 mph N/A   Scattered Clouds
1:35 PM 41.5 °F 33.5 °F 24.8 °F 51% 30.13 in 10.0 mi NW 16.1 mph 23.0 mph N/A   Scattered Clouds
1:55 PM 40.1 °F 33.6 °F 23.4 °F 51% 30.14 in 10.0 mi WNW 10.4 mph 17.3 mph N/A   Scattered Clouds
2:15 PM 40.3 °F 33.4 °F 23.9 °F 52% 30.14 in 10.0 mi WNW 11.5 mph 17.3 mph N/A   Clear
2:35 PM 41.2 °F 35.0 °F 23.9 °F 50% 30.15 in 10.0 mi WNW 10.4 mph 17.3 mph N/A   Mostly Cloudy
2:55 PM 40.1 °F 33.2 °F 22.6 °F 50% 30.15 in 10.0 mi WNW 11.5 mph 20.7 mph N/A   Mostly Cloudy
3:15 PM 39.7 °F 33.2 °F 22.8 °F 51% 30.16 in 10.0 mi NW 10.4 mph 16.1 mph N/A   Mostly Cloudy
3:35 PM 39.7 °F 33.2 °F 23.4 °F 52% 30.17 in 10.0 mi NW 10.4 mph - N/A   Scattered Clouds
3:55 PM 39.6 °F 35.4 °F 22.6 °F 51% 30.17 in 10.0 mi WNW 5.8 mph - N/A   Clear
4:15 PM 39.6 °F 34.7 °F 23.0 °F 52% 30.17 in 10.0 mi WNW 6.9 mph - N/A   Clear
4:35 PM 39.2 °F 34.2 °F 24.1 °F 55% 30.18 in 10.0 mi WNW 6.9 mph - N/A   Clear
4:55 PM 39.2 °F 34.2 °F 25.2 °F 57% 30.18 in 10.0 mi WNW 6.9 mph - N/A   Mostly Cloudy
5:15 PM 39.2 °F 35.0 °F 25.5 °F 58% 30.19 in 10.0 mi WNW 5.8 mph - N/A   Mostly Cloudy
5:35 PM 39.2 °F 34.2 °F 25.5 °F 58% 30.20 in 10.0 mi WNW 6.9 mph - N/A   Overcast
5:55 PM 39.2 °F 35.9 °F 25.5 °F 58% 30.20 in 10.0 mi WNW 4.6 mph - N/A   Overcast
6:15 PM 38.8 °F 33.8 °F 25.7 °F 59% 30.21 in 10.0 mi West 6.9 mph - N/A   Overcast
6:35 PM 38.5 °F 35.0 °F 26.2 °F 61% 30.21 in 10.0 mi West 4.6 mph - N/A   Overcast
6:55 PM 38.5 °F 35.0 °F 26.1 °F 61% 30.22 in 10.0 mi WNW 4.6 mph - N/A   Overcast
7:15 PM 38.7 °F 35.2 °F 26.2 °F 61% 30.23 in 10.0 mi WNW 4.6 mph - N/A   Overcast
7:35 PM 38.5 °F 33.4 °F 25.7 °F 60% 30.23 in 10.0 mi West 6.9 mph - N/A   Overcast
7:55 PM 38.1 °F 35.7 °F 26.1 °F 62% 30.24 in 7.0 mi WNW 3.5 mph - N/A Snow Light Snow
8:15 PM 37.9 °F 32.1 °F 26.2 °F 63% 30.24 in 10.0 mi West 8.1 mph - N/A   Overcast
8:35 PM 37.6 °F 33.1 °F 26.4 °F 64% 30.24 in 10.0 mi WSW 5.8 mph - N/A   Overcast
8:55 PM 37.4 °F 31.4 °F 26.4 °F 65% 30.24 in 10.0 mi West 8.1 mph - N/A   Overcast
9:15 PM 36.9 °F 30.1 °F 26.1 °F 65% 30.24 in 10.0 mi West 9.2 mph - N/A   Overcast
9:35 PM 37.2 °F 29.6 °F 26.2 °F 65% 30.25 in 10.0 mi West 11.5 mph 16.1 mph N/A   Overcast
9:55 PM 37.0 °F 29.8 °F 25.7 °F 64% 30.26 in 10.0 mi West 10.4 mph - N/A   Overcast
10:15 PM 36.5 °F 29.7 °F 25.2 °F 64% 30.26 in 10.0 mi WSW 9.2 mph - N/A   Mostly Cloudy
10:35 PM 35.6 °F 29.2 °F 25.3 °F 66% 30.26 in 10.0 mi West 8.1 mph - N/A   Scattered Clouds
10:55 PM 36.3 °F 28.9 °F 25.5 °F 65% 30.26 in 10.0 mi West 10.4 mph - N/A   Scattered Clouds
11:15 PM 36.5 °F 29.7 °F 25.5 °F 64% 30.26 in 10.0 mi West 9.2 mph - N/A   Scattered Clouds
11:35 PM 35.6 °F 28.0 °F 25.5 °F 67% 30.26 in 10.0 mi West 10.4 mph - N/A   Clear
11:55 PM 34.7 °F 28.1 °F 24.8 °F 67% 30.26 in 10.0 mi WNW 8.1 mph - N/A   Clear